FW7442 Weather Reports


time (UTC)temp
F
wind
direction
speed
knots
gust
knots
rain 1hr
in
rain 24hr
in
rain mn
in
humidity
%
barometer
mb
20260906043103 69 0 0.0 0.0 0.00 0.00 0.00 92 1014.4
20260906041602 69 0 0.0 0.0 0.00 0.00 0.00 92 1014.5
20260906040117 70 0 0.0 0.9 0.00 0.00 0.00 91 1014.5
20260906034607 70 0 0.0 0.9 0.00 0.00 0.00 91 1014.8
20260906033111 70 0 0.0 0.0 0.00 0.00 0.00 91 1014.6
20260906031557 70 273 0.0 0.9 0.00 0.00 0.00 91 1014.7
20260906030105 71 0 0.0 0.9 0.00 0.00 0.00 91 1014.7
20260906024603 71 0 0.0 0.0 0.00 0.00 0.00 90 1014.5
20260906023101 71 273 0.0 1.7 0.00 0.00 0.00 90 1014.4
20260906021607 72 339 0.9 2.6 0.00 0.00 0.00 89 1014.5
20260906020110 72 297 0.9 2.6 0.00 0.00 0.00 89 1014.4
20260906014602 73 0 0.0 1.7 0.00 0.00 0.00 88 1014.3
20260906013110 73 0 0.0 1.7 0.00 0.00 0.00 88 1014.2
20260906011608 74 0 0.0 0.0 0.00 0.00 0.00 87 1014.1
20260906004604 75 0 0.0 0.0 0.00 0.00 0.00 86 1013.7
20260906003105 76 0 0.0 0.9 0.00 0.00 0.00 84 1013.5
20260906001601 76 0 0.0 0.9 0.00 0.00 0.00 84 1013.4
20260905234604 79 0 0.0 0.9 0.00 0.00 0.00 79 1013.3
20260905233100 80 348 0.0 1.7 0.00 0.00 0.00 77 1013.1
20260905231602 81 0 0.0 1.7 0.00 0.00 0.00 77 1013.1
20260905230100 81 0 0.0 0.9 0.00 0.00 0.00 74 1012.9
20260905224602 82 0 0.0 2.6 0.00 0.00 0.00 69 1012.9
20260905223102 83 345 0.9 3.5 0.00 0.00 0.00 69 1012.8
20260905221601 84 296 0.9 7.0 0.00 0.00 0.00 67 1013.1
20260905220100 86 283 0.9 5.2 0.00 0.00 0.00 65 1013.0
20260905214605 85 335 1.7 4.3 0.00 0.00 0.00 64 1013.1
20260905213102 87 316 0.9 2.6 0.00 0.00 0.00 63 1013.2
20260905211600 84 0 0.0 2.6 0.00 0.00 0.00 69 1013.2
20260905210123 82 0 0.9 2.6 0.00 0.00 0.00 73 1013.2
20260905204603 81 0 0.0 2.6 0.00 0.00 0.00 73 1013.5
20260905203104 80 204 0.0 2.6 0.00 0.00 0.00 74 1013.8
20260905201601 80 0 0.0 3.5 0.00 0.00 0.00 76 1014.0
20260905200117 79 312 0.9 3.5 0.00 0.00 0.00 77 1014.0
20260905194608 78 79 0.9 2.6 0.00 0.00 0.00 79 1014.1
20260905193100 78 0 0.0 0.0 0.00 0.00 0.00 77 1014.3
20260905191608 76 0 0.0 2.6 0.00 0.00 0.00 78 1014.3
20260905190056 77 9 1.7 4.3 0.00 0.00 0.00 78 1014.2
20260905184624 77 153 0.9 4.3 0.00 0.00 0.00 76 1013.3
20260905183105 78 0 0.0 3.5 0.00 0.00 0.00 71 1013.9
20260905181601 77 0 0.0 6.1 0.00 0.00 0.00 72 1014.0
20260905180106 77 109 1.7 15.6 0.00 0.00 0.00 70 1015.1
20260905174603 87 9 11.3 25.2 0.00 0.00 0.00 57 1015.6
20260905173110 95 338 0.9 6.1 0.00 0.00 0.00 55 1015.0
20260905171614 95 0 0.9 7.8 0.00 0.00 0.00 54 1015.0
20260905170057 95 243 0.9 7.8 0.00 0.00 0.00 53 1015.1
20260905164603 91 122 0.0 6.1 0.00 0.00 0.00 57 1015.2
20260905163112 93 205 1.7 7.8 0.00 0.00 0.00 54 1015.5
20260905161559 94 304 2.6 7.0 0.00 0.00 0.00 55 1015.7
20260905160107 94 265 1.7 5.2 0.00 0.00 0.00 55 1015.9
20260905154617 94 0 0.9 4.3 0.00 0.00 0.00 52 1015.8
20260905153109 93 315 0.9 7.0 0.00 0.00 0.00 58 1015.7
20260905151614 91 5 0.9 4.3 0.00 0.00 0.00 62 1015.6
20260905150101 92 5 1.7 6.1 0.00 0.00 0.00 62 1015.6
20260905144558 90 314 0.9 3.5 0.00 0.00 0.00 61 1015.7
20260905143104 89 44 0.9 3.5 0.00 0.00 0.00 68 1015.7
20260905141558 88 0 0.9 1.7 0.00 0.00 0.00 71 1015.6
20260905140059 86 32 0.0 1.7 0.00 0.00 0.00 73 1015.7
20260905134556 84 32 0.9 2.6 0.00 0.00 0.00 78 1015.7
20260905133104 82 0 0.9 2.6 0.00 0.00 0.00 80 1015.7
20260905131606 81 16 0.9 2.6 0.00 0.00 0.00 83 1015.9
20260905130059 80 5 0.0 2.6 0.00 0.00 0.00 84 1016.0
20260905124557 78 333 0.0 0.0 0.00 0.00 0.00 88 1016.0
20260905123104 75 0 0.0 0.0 0.00 0.00 0.00 92 1015.9
20260905121604 73 0 0.0 0.0 0.00 0.00 0.00 92 1015.8
20260905120100 71 0 0.0 0.0 0.00 0.00 0.00 95 1015.8
20260905114558 70 0 0.0 0.0 0.00 0.00 0.00 94 1015.9
20260905113104 70 0 0.0 0.0 0.00 0.00 0.00 94 1015.6
20260905111646 70 0 0.0 0.0 0.00 0.00 0.00 94 1015.4
20260905110058 70 0 0.0 0.0 0.00 0.00 0.00 94 1014.9
20260905104603 70 0 0.0 0.0 0.00 0.00 0.00 94 1014.9
20260905103101 70 0 0.0 0.0 0.00 0.00 0.00 94 1014.9
20260905101603 70 0 0.0 0.0 0.00 0.00 0.00 94 1014.7
20260905100106 71 0 0.0 0.0 0.00 0.00 0.00 93 1014.7
20260905094601 71 0 0.0 0.0 0.00 0.00 0.00 94 1014.6
20260905093106 71 0 0.0 0.0 0.00 0.00 0.00 93 1014.6
20260905091554 71 0 0.0 0.0 0.00 0.00 0.00 93 1014.6
20260905084606 71 0 0.0 0.0 0.00 0.00 0.00 93 1014.6
20260905083106 71 0 0.0 0.0 0.00 0.00 0.00 93 1015.0
20260905081605 72 0 0.0 0.0 0.00 0.00 0.00 93 1015.1
20260905080127 72 0 0.0 0.0 0.00 0.00 0.00 93 1015.3
20260905074601 72 0 0.0 0.0 0.00 0.00 0.00 92 1015.4
20260905073102 72 0 0.0 0.0 0.00 0.00 0.00 93 1015.5
20260905071604 72 0 0.0 0.0 0.00 0.00 0.00 92 1015.7
20260905070107 73 0 0.0 0.0 0.00 0.00 0.00 92 1015.7
20260905064606 73 0 0.0 0.0 0.00 0.00 0.00 92 1015.9
20260905063106 73 0 0.0 0.0 0.00 0.00 0.00 92 1016.0
20260905061600 73 0 0.0 0.0 0.00 0.00 0.00 92 1016.2
20260905060104 73 0 0.0 0.0 0.00 0.00 0.00 92 1016.4
20260905054602 73 0 0.0 0.0 0.00 0.00 0.00 92 1016.7
20260905053109 74 0 0.0 0.9 0.00 0.00 0.00 91 1016.9
20260905051557 74 0 0.0 1.7 0.00 0.00 0.00 91 1016.8
20260905050110 74 0 0.0 0.9 0.00 0.00 0.00 91 1016.8
20260905044601 74 0 0.0 1.7 0.00 0.00 0.00 91 1016.8